Zurück zum Katalog

FENGYUN 1C DEB *

AktivSSO
NORAD 46997·DEBRIS·🇨🇳 China

Gestartet May 10, 1999 von Taiyuan Satellite Launch Center

Loading…

Nächste Überflüge (nächste 24 Stunden)

TLE

AktuellSource: Space-Track

Epoche: Sep 13, 2026, 08:10 UTC

1 46997U 99025EZX 26256.34085971  .00001382  00000-0  55921-3 0  9997
2 46997  98.5372 296.1249 0024146 246.6674 173.1543 14.29220490663727

Verfolge FENGYUN 1C DEB * in Echtzeit mit AllMySat

Download on the App Store